Location: Aurora Center
(43.5271°N, 98.5894°W)
Time: 02:09:58
(UTC-05:00)

BlueWalker 3 - Pass Details

Date: 26 June 2024
Orbit: 480 x 492 km, 53.2° (Epoch: 15 July)

Event Time Altitude Azimuth Distance (km) Brightness Sun altitude
Rises 22:54:27 0° 294° (WNW) 2,541 6.7 -13.4°
Reaches altitude 10° 22:57:09 10° 314° (NW) 1,660 6.0 -13.7°
Maximum altitude 22:59:48 18° 359° (N) 1,236 4.6 -14.0°
Drops below altitude 10° 23:02:27 10° 45° (NE) 1,658 4.7 -14.3°
Sets 23:05:08 0° 65° (ENE) 2,537 5.4 -14.6°
